Wind_Speed
22 22 22 23 24 25 26 27 28 28 29 31 32 32 33 34 35 35 37 38 38 39 41 42 42 43 44 45 45 45 44 43 42 40 39 38 39 40 41 42 43 44
23 23 24 25 26 27 28 28 29 30 31 32 33 34 35 36 36 37 38 39 40 41 42 44 44 45 46 46 46 46 45 43 42 40 39 39 40 41 42 44 45 46
25 25 26 27 28 29 30 30 31 32 32 33 34 35 36 37 38 39 39 40 41 43 44 45 46 46 47 47 47 46 45 43 41 40 40 40 41 42 43 45 46 47
27 27 28 29 30 31 31 32 33 34 34 35 36 37 38 39 40 41 41 42 43 44 45 46 47 48 48 48 48 47 45 43 41 40 40 41 42 43 44 45 47 48
29 29 30 31 32 33 33 34 34 35 36 37 38 38 39 40 41 42 43 44 45 45 47 47 48 49 49 49 49 47 46 44 42 41 41 42 43 44 45 47 48 49
32 32 32 33 34 35 35 36 36 37 38 39 40 41 41 42 42 43 44 46 46 47 48 49 49 50 50 51 50 49 47 45 43 42 43 43 44 45 47 48 49 50
34 35 35 36 36 37 37 37 38 39 40 40 41 43 43 44 45 45 46 47 48 49 50 50 51 51 52 52 51 50 49 46 44 43 43 44 45 46 48 49 50 51
36 37 38 38 39 39 39 39 40 41 42 42 43 44 45 46 47 47 48 48 49 50 51 52 52 52 53 52 52 51 50 48 45 43 43 44 46 47 48 49 50 51
39 39 40 40 41 41 41 41 41 42 44 44 45 46 47 48 49 49 50 50 51 51 52 53 53 53 53 53 53 51 49 48 47 44 43 44 46 48 50 49 50 52
42 42 42 42 43 43 42 43 43 44 45 47 47 48 49 49 50 51 51 51 52 52 53 54 54 54 54 54 53 51 50 49 48 46 45 46 48 50 50 49 50 54
45 45 45 45 45 45 44 45 45 46 47 48 49 50 51 51 52 52 53 53 53 53 54 54 55 54 55 55 53 51 50 49 48 49 50 51 51 52 51 49 51 55
48 48 47 47 47 46 46 47 48 48 48 49 50 52 53 54 54 53 54 53 53 54 55 55 55 55 54 55 54 52 50 50 50 52 54 53 51 51 52 51 53 56
50 50 50 49 49 48 48 49 50 51 51 50 51 53 55 56 56 55 55 54 54 54 55 56 57 56 55 56 56 54 51 52 53 53 54 53 52 52 54 55 56 57
53 52 52 51 50 50 50 51 52 53 53 52 52 54 56 58 58 57 56 56 55 55 56 57 57 57 56 56 57 56 54 54 54 53 53 52 52 54 56 57 58 59
55 54 53 52 52 52 52 53 54 55 56 56 55 55 57 58 59 59 58 57 56 55 56 57 57 56 55 55 57 57 56 55 54 53 54 53 53 55 56 58 61 62
57 56 55 54 54 54 54 55 55 57 58 58 57 58 59 60 61 61 60 59 57 56 57 58 57 55 54 55 56 57 56 56 55 56 56 54 54 57 59 61 63 63
59 57 56 56 56 56 56 57 57 58 59 58 59 62 62 62 63 63 63 62 61 59 59 59 58 57 56 56 57 57 57 58 58 57 55 53 54 58 60 61 62 62
61 59 58 58 58 59 59 59 59 60 60 60 62 64 64 64 64 64 65 65 64 63 63 62 62 60 58 58 58 57 58 59 57 55 53 52 55 59 61 63 63 63
63 61 61 60 60 61 62 62 62 62 62 63 64 65 65 66 66 66 66 66 66 66 65 65 64 62 60 60 58 57 59 58 54 53 52 53 57 62 65 65 65 65
65 64 63 63 62 63 64 64 64 64 65 65 66 66 67 68 68 68 67 67 66 66 66 66 66 64 62 61 58 58 58 53 50 51 51 53 60 67 67 66 66 67
67 66 65 64 64 64 65 66 67 67 67 67 68 68 69 70 70 69 69 68 67 67 66 66 66 65 63 61 59 56 53 49 50 53 54 58 66 70 68 67 67 66
69 68 66 65 65 65 66 68 69 68 68 68 69 70 71 71 72 72 71 70 69 68 67 66 67 66 64 62 58 53 48 50 55 57 60 66 70 69 68 68 67 67
71 70 68 67 66 66 67 69 69 69 70 70 71 72 73 74 74 74 73 72 71 70 68 68 68 67 65 62 59 55 53 56 59 61 64 68 68 68 69 68 67 67
73 72 71 70 68 68 68 69 70 72 73 74 74 75 76 77 77 77 76 76 74 72 70 69 68 67 66 64 62 61 60 61 63 64 66 67 67 68 68 67 67 66
76 75 74 72 71 70 70 70 71 74 75 75 75 77 78 79 79 78 78 77 76 74 72 70 68 67 66 65 64 65 65 65 66 67 67 68 69 69 68 68 67 66
78 77 76 74 73 72 72 72 73 75 75 75 76 77 78 79 78 78 77 77 76 75 73 71 69 68 67 67 67 67 68 68 69 69 69 70 70 69 69 69 69 67
Wind_Direction
310 314 317 318 318 319 321 323 325 328 328 328 329 329 330 331 332 333 333 334 334 335 335 335 336 337 338 337 337 336 334 332 329 327 327 327 328 328 329 329 329 329
309 313 315 315 315 316 319 321 323 325 325 326 327 327 328 329 330 331 332 333 333 333 334 334 335 336 336 337 336 335 334 332 329 327 327 327 328 328 329 328 328 328
307 310 312 312 313 314 317 319 321 322 322 324 325 325 326 327 328 329 330 331 331 332 332 333 334 334 335 336 335 334 333 331 329 327 326 326 327 327 327 327 327 326
305 308 309 309 311 312 315 317 319 319 320 321 322 323 324 325 326 327 329 330 330 330 331 332 333 333 334 334 334 333 332 330 328 327 325 325 325 326 326 325 325 324
303 305 306 307 309 310 312 315 316 317 319 319 319 321 322 323 325 326 327 328 329 329 330 331 332 332 332 332 332 331 330 329 327 325 324 324 324 325 325 325 324 323
301 303 304 305 306 308 311 312 314 315 316 317 317 319 320 322 323 324 326 327 328 329 329 330 331 331 332 332 331 330 329 327 325 323 322 323 324 324 324 324 324 323
298 299 301 303 304 306 308 310 312 313 314 314 316 317 319 321 322 323 324 326 327 328 328 329 330 330 331 331 330 329 329 326 323 322 322 322 323 323 323 323 323 324
295 297 299 300 302 304 306 308 310 311 311 313 314 316 318 319 320 321 323 325 326 327 327 327 329 329 330 330 329 328 327 324 322 320 320 321 321 321 322 322 323 325
292 294 296 298 300 302 304 306 308 309 310 312 313 315 316 318 319 320 322 324 325 325 325 326 327 329 329 329 328 327 324 322 321 319 317 318 320 320 320 320 322 325
289 292 294 296 298 300 302 305 306 308 309 311 312 314 315 316 317 319 321 322 323 323 324 325 326 328 328 328 327 325 321 320 320 318 315 316 319 319 319 320 323 326
287 290 292 294 296 299 301 303 305 307 308 310 312 313 314 315 316 318 319 320 321 322 322 323 325 326 328 327 325 322 321 320 319 317 316 317 318 319 319 320 323 326
286 288 291 293 296 298 301 302 304 306 307 309 311 312 312 313 315 316 317 319 320 320 321 322 323 325 327 326 322 321 321 319 318 317 316 317 317 318 318 317 320 324
285 287 290 292 295 298 300 302 303 305 306 308 310 311 311 312 313 315 316 317 318 319 319 321 322 325 327 324 321 321 321 319 319 318 317 317 316 315 315 315 316 319
284 287 289 292 295 297 299 301 303 304 305 306 308 310 310 311 312 313 314 315 316 317 318 320 322 324 326 323 320 320 321 320 319 319 318 317 314 313 314 315 316 316
284 286 289 292 295 297 299 301 303 304 305 305 307 309 310 310 310 311 312 313 314 316 317 319 321 322 323 321 319 319 320 320 318 318 318 315 313 314 316 316 316 315
284 286 289 292 295 298 299 301 302 303 304 304 305 308 309 309 309 310 311 312 314 316 316 317 318 319 320 320 319 318 318 317 317 318 319 316 314 316 317 315 315 315
285 287 290 293 296 298 300 300 301 302 303 303 304 307 309 308 308 309 310 312 314 315 316 316 317 318 319 319 319 317 317 317 318 318 317 314 313 316 316 315 315 315
286 288 291 294 296 298 299 300 300 301 302 303 303 306 307 307 307 309 310 312 313 314 315 316 317 318 319 319 318 317 317 318 318 316 314 313 314 316 316 316 315 315
287 289 292 294 296 297 298 299 300 300 302 302 303 304 305 305 306 308 309 311 312 314 314 315 316 317 317 317 317 317 318 319 318 315 313 313 315 316 316 316 316 316
288 290 292 293 295 296 297 298 299 300 300 301 302 302 303 304 305 307 308 309 310 311 312 313 314 314 315 315 316 317 318 318 315 312 310 308 310 313 315 316 316 316
287 288 290 292 293 295 296 297 298 298 299 299 300 301 301 302 304 305 306 307 308 308 310 311 312 312 312 313 315 318 319 314 307 305 303 303 307 312 314 315 316 316
285 286 288 289 291 293 294 295 296 297 297 298 299 300 300 302 303 303 304 305 306 307 309 311 311 311 311 312 314 317 314 306 301 301 301 304 309 312 313 314 314 314
283 284 286 287 289 290 292 293 294 294 295 297 299 299 300 301 302 303 303 304 306 307 309 310 310 310 310 311 312 312 308 304 303 303 305 307 310 311 312 313 313 314
282 283 284 286 287 289 290 290 291 292 294 296 298 299 299 300 301 302 304 305 306 308 310 311 311 310 310 311 312 311 310 309 308 308 309 310 310 311 311 312 312 313
280 282 283 285 286 287 288 289 290 291 293 296 297 298 299 300 301 303 304 306 307 308 310 311 311 310 310 311 312 311 311 311 310 311 311 311 310 311 311 311 311 311
279 280 282 284 285 286 287 289 290 291 293 295 296 297 298 299 301 303 305 306 307 309 311 311 310 309 310 311 311 311 311 311 312 312 311 311 311 311 311 311 310 310
Height
10984 10984 10983 10982 10981 10980 10980 10979 10978 10978 10977 10975 10974 10972 10971 10969 10968 10967 10964 10962 10961 10960 10958 10956 10955 10953 10950 10947 10945 10942 10940 10937 10935 10932 10930 10928 10926 10924 10922 10919 10917 10915
10982 10982 10981 10980 10979 10978 10977 10977 10976 10975 10974 10973 10972 10970 10968 10967 10965 10964 10962 10960 10958 10957 10955 10953 10952 10950 10948 10945 10942 10939 10937 10934 10931 10929 10927 10925 10923 10920 10918 10916 10913 10910
10980 10979 10979 10977 10976 10976 10975 10974 10973 10972 10972 10971 10970 10968 10966 10964 10962 10961 10960 10958 10956 10954 10952 10951 10949 10947 10945 10942 10940 10937 10934 10932 10929 10926 10924 10921 10919 10917 10915 10912 10910 10907
10977 10977 10976 10975 10974 10973 10972 10971 10970 10969 10968 10968 10967 10966 10964 10962 10960 10957 10956 10955 10953 10951 10950 10948 10946 10943 10941 10939 10936 10934 10931 10928 10926 10923 10920 10918 10916 10914 10911 10909 10906 10904
10974 10974 10973 10972 10970 10970 10969 10968 10967 10966 10965 10964 10963 10963 10961 10960 10958 10955 10953 10951 10949 10948 10947 10945 10943 10940 10938 10935 10932 10930 10927 10924 10921 10918 10916 10913 10911 10910 10907 10905 10902 10899
10971 10970 10969 10968 10967 10966 10966 10965 10964 10963 10962 10961 10959 10958 10958 10956 10955 10953 10950 10948 10946 10944 10943 10941 10939 10937 10934 10931 10928 10925 10923 10920 10917 10914 10911 10909 10907 10905 10902 10900 10897 10893
10967 10966 10966 10965 10963 10963 10962 10961 10961 10960 10959 10958 10956 10955 10953 10952 10951 10949 10947 10945 10942 10941 10939 10937 10935 10932 10930 10927 10923 10920 10918 10915 10912 10910 10907 10904 10902 10900 10897 10895 10891 10888
10963 10962 10961 10961 10960 10959 10959 10958 10957 10956 10955 10954 10953 10951 10949 10948 10946 10945 10943 10941 10939 10937 10935 10933 10931 10929 10926 10923 10920 10916 10912 10909 10907 10905 10903 10900 10897 10895 10893 10890 10886 10883
10959 10958 10957 10957 10956 10955 10955 10954 10954 10952 10951 10949 10949 10948 10946 10944 10942 10940 10939 10937 10936 10934 10931 10929 10927 10925 10922 10919 10915 10912 10907 10903 10901 10899 10897 10895 10893 10890 10887 10885 10882 10878
10954 10954 10953 10953 10952 10952 10951 10951 10950 10949 10947 10945 10944 10943 10942 10941 10939 10937 10935 10934 10932 10930 10928 10925 10923 10921 10918 10914 10910 10905 10901 10897 10894 10892 10891 10890 10888 10885 10882 10880 10877 10874
10949 10949 10949 10949 10948 10948 10947 10946 10946 10945 10944 10942 10939 10938 10937 10936 10935 10933 10931 10930 10928 10926 10924 10922 10920 10917 10914 10909 10904 10900 10895 10892 10888 10885 10883 10882 10881 10879 10876 10874 10871 10869
10944 10944 10944 10944 10944 10944 10943 10942 10941 10941 10940 10939 10936 10934 10932 10931 10931 10930 10928 10926 10924 10922 10920 10918 10915 10914 10910 10904 10898 10894 10891 10887 10883 10880 10877 10875 10874 10872 10870 10868 10866 10863
10939 10940 10940 10940 10940 10939 10939 10938 10936 10936 10935 10935 10934 10931 10928 10926 10925 10925 10923 10922 10920 10918 10915 10913 10910 10909 10906 10899 10892 10889 10887 10883 10879 10876 10872 10869 10867 10865 10864 10862 10860 10858
10935 10935 10935 10935 10936 10935 10935 10934 10932 10931 10930 10930 10930 10928 10925 10921 10920 10919 10918 10917 10916 10913 10910 10908 10905 10904 10902 10895 10887 10884 10882 10878 10875 10872 10868 10865 10862 10859 10858 10856 10853 10851
10930 10930 10930 10931 10932 10931 10931 10930 10928 10926 10924 10924 10925 10924 10922 10919 10915 10914 10914 10913 10911 10909 10906 10903 10902 10901 10899 10893 10884 10879 10877 10874 10870 10868 10865 10861 10857 10854 10852 10850 10847 10844
10925 10926 10926 10927 10927 10927 10927 10926 10925 10923 10920 10918 10918 10918 10917 10914 10911 10908 10907 10907 10906 10904 10901 10899 10898 10898 10896 10890 10883 10877 10874 10870 10867 10865 10862 10858 10853 10850 10847 10844 10841 10837
10920 10921 10922 10922 10922 10922 10922 10921 10920 10919 10917 10914 10912 10911 10910 10907 10904 10901 10899 10898 10898 10896 10894 10892 10892 10891 10889 10885 10880 10874 10870 10867 10864 10861 10858 10854 10849 10846 10842 10839 10835 10832
10915 10916 10917 10917 10917 10916 10916 10916 10915 10914 10912 10910 10907 10905 10904 10901 10898 10895 10892 10889 10888 10887 10886 10884 10883 10883 10882 10879 10875 10870 10866 10863 10859 10855 10852 10848 10845 10841 10837 10833 10830 10826
10909 10910 10911 10912 10911 10910 10909 10909 10909 10908 10907 10905 10902 10900 10898 10895 10892 10891 10887 10884 10882 10880 10878 10877 10876 10876 10875 10873 10870 10866 10861 10857 10853 10848 10845 10842 10838 10835 10831 10827 10823 10818
10903 10904 10905 10905 10905 10904 10902 10901 10900 10900 10899 10898 10896 10894 10891 10888 10886 10885 10883 10881 10878 10876 10874 10872 10870 10869 10869 10867 10865 10862 10856 10851 10846 10841 10838 10836 10832 10829 10826 10822 10816 10811
10896 10897 10899 10899 10899 10897 10896 10894 10892 10892 10891 10890 10888 10886 10883 10881 10880 10879 10878 10877 10875 10873 10871 10868 10864 10862 10861 10859 10859 10858 10853 10846 10841 10836 10832 10830 10826 10822 10819 10815 10810 10804
10890 10890 10892 10893 10892 10891 10889 10886 10884 10883 10882 10881 10880 10878 10875 10873 10872 10872 10871 10871 10870 10868 10865 10862 10857 10854 10853 10851 10852 10854 10851 10844 10839 10834 10829 10824 10821 10816 10812 10808 10803 10798
10882 10883 10884 10885 10886 10885 10883 10880 10877 10875 10873 10873 10872 10869 10866 10864 10863 10863 10863 10863 10862 10861 10859 10854 10849 10845 10844 10843 10844 10845 10843 10838 10833 10830 10825 10819 10815 10810 10805 10800 10796 10790
10874 10875 10876 10877 10878 10878 10876 10873 10871 10867 10865 10864 10863 10860 10857 10854 10853 10853 10852 10851 10851 10851 10850 10846 10840 10835 10833 10833 10833 10832 10830 10828 10824 10820 10816 10812 10808 10803 10798 10793 10789 10784
10865 10865 10867 10868 10870 10869 10867 10866 10863 10860 10857 10857 10855 10852 10848 10845 10844 10842 10841 10840 10839 10839 10839 10836 10831 10826 10824 10824 10822 10820 10818 10816 10813 10810 10806 10801 10798 10794 10789 10785 10781 10778
10855 10856 10857 10859 10860 10859 10858 10857 10854 10851 10849 10849 10846 10843 10840 10838 10836 10834 10832 10830 10828 10828 10827 10824 10820 10817 10816 10815 10813 10810 10808 10805 10803 10800 10796 10791 10788 10784 10780 10776 10772 10769